Wind_Speed
10 7 7 7 5 3 2 4 5 7 9 11 12 12 12 11 12 14 16 16 16 17 18 18 15 13 12 11 10 10 8 6 6 5 5 5 5 5 6 1 4 5 5 5 6 6 6 8 8
10 7 6 6 4 3 5 6 7 9 10 12 14 16 15 14 12 13 13 14 15 15 15 16 16 13 12 10 9 8 8 5 5 6 6 5 5 1 1 2 1 4 6 8 8 8 10 10 10
9 7 7 6 5 5 6 6 7 7 9 12 15 16 18 18 17 15 12 12 12 13 13 13 13 11 11 12 9 7 6 5 3 4 5 5 7 7 4 2 5 9 7 7 10 9 11 11 11
11 10 11 9 10 8 7 7 7 6 8 12 14 15 17 18 18 18 17 13 10 10 10 11 10 10 7 7 12 8 5 5 6 3 5 5 5 9 8 5 8 10 12 12 11 11 14 14 15
12 12 12 12 10 8 6 6 5 6 8 10 12 14 17 19 19 19 19 16 12 9 7 7 9 9 9 8 6 11 10 5 6 7 5 6 7 5 8 9 10 11 13 14 13 15 16 16 18
14 14 14 12 10 8 5 3 2 4 6 7 9 11 12 15 17 17 18 19 17 14 10 8 8 9 10 9 10 9 9 12 10 9 9 8 9 8 7 9 13 13 13 15 14 15 17 19 20
14 14 13 11 10 9 7 5 3 1 1 3 4 7 11 14 16 17 18 18 19 19 17 12 10 9 9 10 11 12 14 12 14 15 14 13 12 12 11 10 10 13 15 15 15 17 19 21 21
17 15 13 12 11 9 9 9 7 5 4 4 4 5 9 12 15 17 19 19 19 20 20 18 14 12 13 11 11 13 15 17 17 17 19 18 16 16 15 15 15 13 14 16 18 19 21 22 23
18 17 16 14 12 13 11 12 11 9 8 8 7 7 9 11 14 16 18 21 23 22 22 21 18 15 15 16 15 14 16 19 19 22 21 22 23 21 20 19 19 19 19 19 20 21 22 24 25
20 19 19 17 16 15 15 15 14 13 13 11 10 11 10 12 15 16 18 20 22 23 24 23 23 19 18 17 19 19 17 19 23 23 25 26 26 27 26 25 24 24 23 24 25 24 24 24 24
22 22 23 21 20 21 20 18 18 17 18 16 15 14 14 15 16 16 19 20 21 23 25 25 25 25 24 21 21 22 24 21 22 25 27 27 29 29 31 31 29 28 28 28 28 28 27 26 26
27 25 27 25 24 24 24 23 21 20 24 23 19 18 18 18 19 19 20 20 20 23 25 27 28 29 29 27 24 24 26 27 26 25 28 31 31 32 32 33 34 33 32 33 32 31 30 30 30
31 29 29 28 27 27 27 27 23 23 28 27 24 22 21 21 23 24 22 23 22 24 27 28 30 33 32 31 29 26 26 30 30 28 29 30 33 35 36 35 35 38 38 38 38 36 36 35 34
32 32 33 30 31 31 31 32 25 29 31 29 29 27 25 24 25 26 26 26 27 28 30 31 32 32 33 34 34 32 29 29 33 35 34 32 36 36 36 40 38 39 41 42 42 42 40 40 40
35 36 35 32 34 34 36 34 27 33 31 31 33 32 30 29 27 27 29 30 31 33 34 35 35 34 34 36 36 37 35 32 32 36 37 40 38 36 38 35 42 41 42 44 45 46 46 44 45
40 39 37 34 35 37 40 37 34 35 36 36 35 35 33 32 31 31 32 33 35 38 39 38 37 37 36 38 39 40 40 39 37 37 41 41 42 41 40 40 36 34 46 47 44 47 48 48 49
42 41 41 40 40 41 42 43 37 38 39 39 36 36 35 34 35 36 37 37 39 40 41 41 42 41 41 41 42 42 42 43 43 42 40 45 47 47 47 46 41 34 37 32 46 50 49 49 50
45 47 47 46 44 45 43 45 43 41 41 40 39 38 37 36 38 42 43 43 43 42 43 45 46 46 46 44 44 44 45 45 46 46 44 43 44 48 44 47 45 49 39 38 34 45 50 53 49
51 50 49 49 47 47 45 47 46 44 42 42 42 40 39 40 43 46 47 47 47 47 47 47 47 48 49 49 47 47 47 48 48 47 47 47 46 46 52 49 47 50 50 42 34 39 38 46 49
52 51 51 51 49 52 49 47 45 44 43 43 44 43 44 45 47 47 48 49 49 49 50 50 50 50 51 52 51 50 50 49 50 48 48 48 48 49 49 50 49 49 53 52 49 38 35 35 47
52 51 50 49 48 50 50 49 44 42 42 43 44 47 49 48 48 49 51 52 52 52 53 53 53 53 53 54 53 53 52 51 51 52 48 48 50 50 49 48 51 52 50 49 61 50 45 38 40
50 49 49 48 50 50 48 55 53 49 46 49 46 47 49 51 50 53 54 54 54 54 53 53 54 53 53 54 55 54 52 51 50 48 45 46 49 50 53 52 51 53 56 53 52 53 50 45 45
56 55 54 56 56 56 56 55 57 53 49 47 48 49 48 51 53 55 56 56 54 53 52 51 49 50 53 54 53 53 53 51 50 49 46 45 46 49 53 55 54 54 55 56 55 53 52 54 49
55 55 53 52 52 58 53 53 57 55 54 50 48 49 51 54 57 58 56 54 53 52 50 49 48 48 50 52 53 52 51 50 49 49 48 46 48 49 51 53 53 52 53 54 54 54 50 51 50
49 51 52 55 57 62 57 57 51 51 51 47 50 54 57 58 57 56 54 50 48 46 45 44 45 46 46 46 47 48 48 47 47 47 49 49 49 51 52 53 53 52 52 53 53 55 51 53 48
45 49 50 51 52 54 53 54 49 47 48 51 53 56 58 58 57 56 54 48 43 42 42 41 42 41 40 40 41 39 39 39 41 43 44 46 49 51 51 52 53 52 52 52 51 53 51 52 49
45 48 44 47 49 53 54 50 49 49 47 50 53 55 57 59 56 50 46 43 40 35 35 37 41 44 43 43 44 44 44 46 46 47 48 47 48 50 52 52 52 53 54 55 54 53 52 52 52
45 46 46 47 49 50 52 52 50 51 53 53 54 55 55 55 52 48 43 37 39 40 40 41 42 41 43 46 46 46 46 47 48 48 48 49 50 51 53 54 52 51 50 50 53 52 51 49 50
46 47 48 48 50 51 54 52 51 54 55 51 52 51 51 50 46 44 43 41 40 39 43 47 46 41 40 42 39 37 39 39 40 43 46 46 46 47 46 46 46 47 48 47 48 50 51 53 54
51 51 51 54 53 52 56 53 56 56 53 51 51 51 49 48 47 46 44 45 38 33 30 28 32 32 32 32 33 36 40 43 43 43 42 42 42 42 43 41 43 44 45 45 46 46 47 47 47
Wind_Direction
204 202 198 201 192 183 102 80 70 57 43 36 29 26 29 33 32 30 34 37 36 33 27 25 22 20 21 26 29 20 20 30 32 29 25 19 58 54 31 41 351 244 283 287 261 242 227 231 230
210 208 191 172 158 122 89 82 69 59 55 45 37 35 32 33 29 30 32 34 32 33 34 25 19 11 5 11 16 27 12 15 35 10 8 5 351 10 198 61 280 220 214 268 258 251 238 241 240
207 188 178 170 148 123 110 107 91 71 55 42 37 34 34 35 33 25 21 22 27 29 23 30 21 8 354 345 354 9 17 349 1 358 341 358 336 324 304 237 227 203 212 224 273 269 262 250 247
193 183 185 166 147 141 129 112 97 75 51 44 38 32 31 31 29 22 18 13 7 14 14 13 9 357 346 333 328 332 342 340 317 322 316 319 327 328 309 278 272 249 225 249 242 260 260 256 254
202 191 190 173 155 151 140 121 93 64 46 38 32 24 24 24 21 17 14 14 2 350 353 359 355 350 326 313 297 313 312 313 312 306 295 297 298 313 307 278 280 278 259 257 250 250 261 260 259
208 198 191 178 171 168 166 147 97 59 39 32 25 19 15 16 17 12 8 6 9 3 339 328 327 334 330 306 296 282 287 295 294 295 292 286 290 292 296 300 283 268 265 267 270 267 270 270 268
214 205 197 190 194 196 199 198 201 158 10 1 9 5 3 8 4 4 6 3 3 0 356 334 313 307 315 317 300 289 283 271 282 287 286 286 281 282 281 275 278 279 269 263 266 269 268 269 270
221 217 210 209 214 216 221 226 222 221 241 274 310 333 349 353 351 353 356 354 355 355 353 350 333 301 298 298 301 292 285 280 274 273 281 280 280 279 276 273 267 257 262 268 270 269 270 271 271
225 228 231 228 227 231 240 245 241 242 247 263 283 305 326 334 336 340 343 346 350 348 347 345 339 326 302 289 289 288 289 283 277 273 271 274 276 274 277 272 267 261 262 260 263 267 269 270 271
238 239 243 243 246 247 246 252 253 254 255 262 280 290 306 317 319 330 332 337 341 341 341 336 333 329 318 297 286 286 284 288 282 274 273 271 271 273 270 270 269 261 258 261 264 266 267 268 269
242 245 247 251 252 252 254 258 262 266 268 263 271 284 296 301 310 319 321 324 330 331 333 328 325 324 320 311 291 285 285 283 284 290 273 272 270 268 269 269 267 265 260 259 261 264 266 265 268
246 248 252 251 256 257 257 255 259 266 270 270 271 279 286 293 302 306 307 309 318 319 322 320 318 319 317 311 301 286 281 281 282 287 290 280 270 270 267 266 266 264 262 262 261 264 268 271 271
249 250 253 254 255 256 259 259 262 268 265 269 273 275 283 291 296 297 298 301 306 307 309 314 310 312 312 306 302 295 284 277 278 278 283 288 293 273 269 268 263 264 263 263 263 264 268 268 268
248 249 253 254 257 258 257 260 264 265 267 271 273 278 281 283 288 290 294 297 298 298 301 303 302 302 302 301 300 296 290 282 276 277 277 281 285 289 290 264 268 265 264 264 264 265 266 267 268
250 248 250 253 255 257 258 259 265 263 266 270 273 278 282 285 285 289 292 290 292 296 295 295 298 297 294 294 291 292 289 282 276 273 276 278 278 286 287 287 270 262 267 267 264 264 265 265 266
254 254 255 259 259 258 258 259 262 266 268 270 274 279 282 283 285 286 285 288 292 291 293 295 296 292 287 285 286 287 288 286 281 276 271 275 279 280 283 288 281 287 270 263 270 269 265 263 263
259 264 263 261 261 261 261 263 262 266 270 274 276 277 279 283 286 284 285 286 285 287 291 294 294 292 288 283 282 283 283 283 281 278 274 272 275 278 279 280 281 276 279 294 276 260 268 270 269
260 259 260 262 264 264 265 266 266 268 272 276 277 278 280 281 282 284 284 281 284 289 291 292 291 289 287 283 280 279 278 278 277 278 279 278 273 276 278 281 287 290 286 275 290 303 272 262 266
260 262 265 266 267 266 267 266 270 274 276 276 277 277 277 280 282 279 280 287 290 291 292 289 286 285 285 282 279 277 276 277 276 276 277 277 276 275 274 278 282 284 287 278 282 288 288 278 270
263 265 268 269 270 270 268 267 271 275 278 278 278 278 278 279 279 281 284 286 287 287 288 287 286 283 279 277 275 274 273 274 275 275 274 273 276 276 275 275 276 278 281 285 280 287 294 283 280
267 268 269 269 267 267 268 266 267 273 278 278 277 278 281 281 280 283 285 285 284 285 285 284 282 279 276 275 273 273 274 273 272 273 274 273 272 274 276 276 276 279 279 280 278 283 283 276 285
266 265 265 266 266 267 269 274 273 274 274 275 277 277 277 279 281 282 281 282 283 283 283 282 280 278 274 272 272 272 272 271 273 273 273 271 271 271 275 277 278 278 280 280 285 289 288 287 280
264 265 266 268 270 272 273 273 274 273 272 275 277 278 280 280 279 281 283 283 285 285 284 282 279 274 273 273 272 272 273 273 274 275 274 272 271 270 272 275 275 276 277 280 282 285 285 288 289
263 263 265 267 271 268 270 274 272 276 277 281 284 284 282 282 283 283 285 287 287 286 285 281 278 275 274 272 271 271 272 272 273 273 274 272 270 269 271 273 274 273 274 277 281 281 284 289 291
262 264 267 265 263 265 269 270 271 276 279 281 281 281 282 283 285 286 286 287 287 284 280 277 277 276 275 276 276 276 274 275 276 278 276 274 271 268 268 270 273 273 274 275 278 280 280 280 286
257 257 261 269 273 273 269 267 271 273 276 279 280 281 284 285 286 287 288 287 283 278 275 273 271 272 275 275 276 276 276 274 274 272 272 273 273 273 271 271 272 273 272 273 274 277 281 281 284
257 260 264 265 266 268 272 275 274 275 277 278 280 280 282 286 288 288 287 282 279 267 265 268 272 273 274 273 273 271 274 275 278 275 274 274 272 273 274 271 271 271 271 271 272 273 275 277 280
260 263 263 266 268 272 271 270 273 278 276 276 278 280 281 283 286 287 285 279 265 267 266 273 280 278 277 277 278 278 280 281 280 275 273 272 272 271 274 276 276 276 274 274 273 272 273 274 277
259 260 263 265 265 270 272 273 275 273 275 279 280 282 282 281 281 281 283 283 282 273 269 271 273 274 277 278 281 284 283 281 280 279 276 277 277 277 276 276 276 276 276 274 272 271 271 273 274
255 257 259 262 267 271 272 272 275 278 281 283 281 280 278 277 277 277 278 277 276 279 279 274 269 269 280 280 281 279 281 281 282 281 280 278 278 278 279 278 278 277 276 276 276 274 272 271 273
Height
5879 5880 5881 5883 5886 5885 5884 5886 5886 5885 5885 5885 5884 5884 5884 5883 5882 5884 5880 5879 5878 5878 5877 5876 5876 5875 5873 5872 5871 5871 5872 5871 5871 5871 5871 5871 5871 5871 5872 5873 5873 5871 5871 5872 5872 5872 5871 5871 5871
5877 5879 5881 5881 5883 5883 5884 5885 5885 5884 5884 5883 5883 5882 5882 5882 5881 5881 5880 5879 5879 5878 5876 5876 5876 5875 5874 5873 5873 5871 5871 5871 5871 5871 5871 5870 5871 5871 5871 5872 5872 5873 5873 5873 5872 5871 5871 5871 5870
5877 5878 5880 5880 5881 5882 5883 5883 5883 5884 5883 5883 5882 5882 5881 5882 5881 5880 5879 5879 5878 5877 5877 5875 5874 5874 5874 5874 5873 5872 5871 5871 5870 5870 5870 5870 5870 5871 5871 5871 5871 5871 5872 5872 5870 5870 5870 5869 5869
5875 5877 5879 5879 5879 5880 5881 5882 5882 5883 5883 5883 5882 5882 5882 5881 5880 5879 5878 5877 5877 5876 5875 5875 5874 5873 5872 5872 5873 5872 5871 5870 5870 5869 5869 5869 5869 5869 5870 5870 5870 5870 5870 5869 5870 5869 5868 5868 5868
5873 5875 5876 5877 5878 5879 5879 5880 5880 5881 5881 5881 5881 5881 5880 5880 5880 5879 5877 5876 5875 5874 5873 5873 5872 5872 5872 5871 5869 5870 5871 5869 5869 5869 5867 5868 5867 5867 5868 5869 5868 5868 5868 5869 5869 5867 5866 5866 5865
5870 5873 5874 5876 5876 5877 5877 5877 5878 5878 5879 5880 5881 5880 5880 5880 5879 5878 5876 5875 5873 5872 5872 5871 5871 5870 5870 5869 5869 5867 5867 5869 5868 5867 5867 5866 5866 5865 5865 5866 5866 5865 5865 5865 5866 5865 5864 5864 5863
5867 5870 5872 5873 5874 5875 5875 5875 5876 5877 5877 5879 5880 5879 5879 5878 5877 5876 5874 5874 5872 5871 5870 5870 5869 5868 5868 5868 5868 5866 5865 5863 5865 5866 5865 5865 5864 5863 5863 5863 5863 5863 5862 5861 5861 5861 5861 5860 5859
5863 5866 5868 5869 5871 5872 5872 5873 5873 5874 5875 5876 5877 5877 5876 5875 5874 5873 5873 5873 5871 5870 5869 5868 5867 5866 5865 5864 5864 5864 5863 5862 5861 5860 5862 5861 5861 5860 5859 5859 5859 5859 5859 5859 5858 5857 5856 5855 5854
5859 5861 5862 5865 5867 5868 5869 5870 5871 5872 5872 5872 5873 5873 5873 5872 5871 5871 5870 5869 5868 5868 5867 5866 5864 5863 5862 5862 5860 5860 5860 5859 5858 5858 5856 5857 5858 5856 5856 5854 5854 5855 5854 5854 5854 5853 5852 5851 5850
5855 5855 5856 5860 5862 5864 5865 5866 5868 5869 5869 5869 5870 5870 5869 5869 5869 5869 5867 5866 5865 5864 5864 5862 5860 5859 5858 5858 5857 5856 5855 5855 5855 5854 5853 5852 5852 5852 5851 5850 5850 5849 5849 5849 5848 5848 5847 5846 5844
5851 5851 5852 5854 5858 5860 5861 5862 5863 5864 5864 5864 5866 5866 5865 5865 5866 5866 5865 5863 5862 5861 5859 5858 5856 5854 5854 5853 5853 5852 5851 5850 5849 5849 5848 5847 5846 5845 5845 5846 5844 5843 5843 5843 5842 5842 5841 5840 5839
5846 5846 5847 5850 5853 5855 5856 5857 5859 5860 5858 5858 5860 5861 5860 5861 5861 5862 5861 5860 5859 5856 5854 5853 5851 5850 5849 5848 5848 5847 5847 5846 5845 5844 5843 5842 5840 5839 5838 5838 5838 5837 5836 5836 5836 5835 5834 5834 5834
5840 5842 5843 5845 5847 5848 5850 5851 5855 5855 5851 5852 5853 5854 5855 5856 5856 5855 5856 5855 5853 5851 5849 5848 5846 5845 5844 5842 5841 5841 5840 5840 5839 5838 5838 5836 5835 5832 5831 5829 5829 5829 5829 5828 5828 5828 5827 5826 5826
5834 5835 5836 5840 5841 5842 5844 5845 5850 5848 5845 5847 5847 5848 5849 5851 5850 5850 5850 5848 5846 5845 5843 5843 5842 5840 5839 5837 5835 5833 5833 5834 5833 5832 5831 5830 5829 5826 5824 5823 5822 5820 5819 5819 5820 5820 5819 5818 5817
5826 5829 5830 5834 5835 5837 5836 5839 5844 5840 5840 5840 5840 5842 5844 5845 5845 5844 5842 5840 5839 5837 5836 5835 5835 5834 5833 5831 5828 5826 5825 5825 5825 5824 5824 5823 5822 5820 5818 5816 5813 5811 5810 5810 5810 5810 5810 5809 5807
5817 5821 5824 5828 5828 5828 5828 5833 5835 5833 5832 5832 5834 5835 5836 5837 5838 5837 5835 5834 5831 5828 5827 5826 5826 5826 5825 5822 5821 5818 5817 5816 5817 5816 5815 5813 5813 5812 5810 5809 5805 5803 5804 5800 5800 5800 5799 5798 5796
5810 5814 5816 5818 5819 5819 5821 5822 5827 5825 5824 5825 5827 5827 5827 5829 5828 5827 5827 5825 5821 5819 5818 5817 5816 5816 5815 5813 5813 5811 5809 5808 5806 5806 5805 5804 5803 5801 5801 5800 5798 5795 5793 5791 5790 5788 5787 5787 5787
5801 5801 5803 5807 5811 5811 5813 5813 5815 5816 5817 5818 5818 5819 5821 5820 5818 5818 5816 5813 5813 5813 5811 5809 5807 5805 5804 5804 5803 5802 5800 5798 5796 5796 5795 5794 5793 5790 5790 5789 5788 5786 5785 5782 5779 5778 5775 5775 5775
5788 5792 5795 5797 5799 5801 5804 5805 5805 5807 5809 5808 5809 5810 5812 5811 5809 5806 5804 5805 5804 5802 5802 5800 5797 5796 5794 5793 5793 5791 5790 5789 5788 5786 5785 5783 5781 5780 5778 5778 5778 5776 5774 5772 5769 5766 5764 5764 5761
5778 5781 5784 5786 5788 5788 5793 5797 5798 5798 5800 5800 5799 5800 5801 5800 5797 5796 5797 5796 5794 5792 5789 5788 5786 5785 5783 5781 5780 5779 5778 5777 5777 5775 5774 5771 5771 5769 5767 5768 5767 5766 5764 5761 5759 5756 5754 5754 5753
5769 5771 5772 5774 5774 5776 5780 5785 5791 5793 5791 5789 5791 5790 5788 5789 5788 5786 5786 5785 5783 5781 5778 5776 5774 5772 5771 5769 5768 5767 5767 5766 5765 5764 5763 5762 5759 5758 5757 5755 5756 5754 5753 5751 5747 5746 5745 5741 5741
5758 5759 5758 5760 5760 5767 5773 5772 5780 5783 5784 5778 5780 5780 5778 5776 5777 5775 5772 5772 5770 5768 5766 5764 5761 5759 5758 5757 5756 5756 5756 5755 5753 5753 5753 5751 5750 5748 5745 5744 5743 5742 5741 5740 5737 5733 5734 5732 5730
5748 5748 5747 5748 5752 5756 5761 5761 5766 5769 5770 5768 5769 5767 5767 5765 5764 5763 5761 5759 5757 5755 5753 5751 5750 5748 5746 5745 5745 5744 5743 5743 5743 5742 5742 5741 5739 5737 5735 5733 5731 5730 5728 5727 5725 5724 5723 5722 5720
5735 5735 5736 5738 5740 5742 5750 5750 5756 5755 5755 5754 5754 5753 5753 5753 5751 5750 5748 5746 5744 5743 5741 5739 5737 5736 5735 5734 5733 5732 5732 5732 5731 5730 5729 5728 5727 5725 5723 5721 5719 5718 5717 5714 5711 5712 5709 5708 5708
5724 5725 5724 5725 5727 5730 5737 5736 5747 5743 5742 5745 5743 5740 5738 5737 5737 5737 5735 5733 5731 5730 5729 5727 5726 5725 5724 5723 5723 5722 5721 5721 5720 5718 5717 5716 5714 5712 5711 5709 5707 5706 5704 5703 5700 5700 5697 5697 5698
5711 5711 5712 5712 5715 5718 5722 5726 5734 5735 5734 5731 5730 5728 5725 5725 5724 5722 5721 5719 5718 5718 5717 5716 5715 5715 5714 5714 5713 5712 5711 5709 5708 5707 5705 5704 5702 5700 5698 5697 5695 5694 5693 5691 5689 5688 5686 5685 5684
5700 5699 5705 5703 5703 5704 5709 5719 5722 5720 5723 5720 5718 5718 5715 5710 5710 5710 5709 5708 5707 5706 5706 5706 5705 5704 5703 5703 5702 5701 5700 5698 5697 5695 5694 5692 5690 5689 5687 5685 5683 5681 5680 5679 5678 5676 5673 5671 5670
5690 5691 5691 5692 5692 5693 5696 5703 5710 5709 5708 5709 5708 5707 5706 5702 5699 5698 5698 5698 5697 5696 5696 5695 5694 5692 5691 5691 5689 5688 5687 5686 5684 5683 5681 5679 5678 5676 5674 5673 5671 5669 5667 5666 5665 5663 5661 5659 5658
5677 5676 5678 5681 5679 5679 5686 5694 5697 5694 5694 5698 5697 5695 5694 5691 5690 5688 5688 5686 5686 5687 5686 5684 5683 5681 5680 5678 5677 5676 5675 5674 5672 5671 5670 5668 5666 5664 5662 5660 5659 5657 5655 5652 5651 5649 5648 5647 5646
5662 5664 5664 5664 5670 5673 5672 5683 5680 5682 5685 5683 5682 5680 5680 5680 5679 5678 5678 5677 5676 5675 5674 5673 5671 5670 5669 5668 5668 5667 5665 5664 5662 5660 5658 5656 5654 5652 5650 5648 5646 5644 5642 5639 5638 5637 5635 5633 5632